Regional Weather Roundup
Issued by NWS Upton, NY

Current Version | Previous Version | Graphics & Text | Print | Product List | Glossary Off
Versions: 1 2 3 4 5 6 7 8 9 10 11 12 13 14 15 16 17 18 19 20 21 22 23 24 25 26 27 28 29 30 31 32 33 34 35 36 37 38 39 40 41 42 43 44 45 46 47 48 49 50

000
ASUS41 KOKX 290705
RWROKX
REGIONAL WEATHER ROUNDUP
NATIONAL WEATHER SERVICE NEW YORK NY
300 AM EDT TUE JUL 29 2014

NOTE: "FAIR" INDICATES FEW OR NO CLOUDS BELOW 12,000 FEET WITH NO
SIGNIFICANT WEATHER AND/OR OBSTRUCTIONS TO VISIBILITY.

NYZ071-072-176-178-NJZ106-104-290800-
NEW YORK CITY METRO AREA


CITY           SKY/WX    TMP DP  RH WIND       PRES   REMARKS
CENTRAL PARK   CLEAR     66  53  63 NW8G17    29.78R
LAGUARDIA APRT PTCLDY    67  55  65 NW18G25   29.74R
KENNEDY INTL   PTCLDY    67  55  65 NW13G21   29.75R
NEWARK/LIBERTY PTCLDY    66  55  67 NW7       29.76R
BRNX BOT. GARD   N/A     64  54  68 NW7       29.77R
TETERBORO      CLEAR     67  53  61 NW7G16    29.75R
$$

NYZ177-179-078>081-290800-
LONG ISLAND NEW YORK

CITY           SKY/WX    TMP DP  RH WIND       PRES   REMARKS
FARMINGDALE    CLEAR     65  56  72 NW9G16    29.74R
ISLIP          CLEAR     67  57  70 NW7       29.71R
SHIRLEY        CLEAR     66  58  75 W6        29.73R
WESTHAMPTON    MOCLDY    67  57  70 NW5       29.73R
MONTAUK POINT    N/A     68  59  73 W9G18     29.71R
$$

NYZ052-065-067-290800-
HUDSON VALLEY

CITY           SKY/WX    TMP DP  RH WIND       PRES   REMARKS
WHITE PLAINS   CLEAR     63  55  75 NW12      29.73R
NEWBURGH       NOT AVBL
MONTGOMERY     MOCLDY    61  53  75 VRB5      29.76R
POUGHKEEPSIE   MOCLDY    65  56  72 NW5       29.73R
ALBANY         CLOUDY    61  56  83 W5        29.73R
$$

NJZ001-105-106-008-010-013-015-019>022-104-290800-
NEW JERSEY

CITY           SKY/WX    TMP DP  RH WIND       PRES   REMARKS
NEWARK/LIBERTY PTCLDY    66  55  67 NW7       29.76R
TETERBORO      CLEAR     67  53  61 NW7G16    29.75R
CALDWELL       CLEAR     64  53  67 VRB6      29.77R
MORRISTOWN     CLEAR     66  54  63 NW6       29.77R
SOMERVILLE     CLEAR     63  55  75 VRB3      29.76S
LINDEN         FAIR      66  56  68 N6        29.78R
SUSSEX         MOCLDY    64  53  67 N7        29.79R
ANDOVER          N/A     61  53  75 VRB5      29.80R
TRENTON        CLEAR     63  54  72 MISG      29.78R
MILLVILLE      CLEAR     65  58  78 NW7       29.80R
ATLANTIC CITY  CLEAR     64  59  83 W6        29.79R
WRIGHTSTOWN    CLEAR     64  55  72 NW7       29.77R
TOMS RIVER     CLEAR     64  55  72 NW5       29.78R
BELMAR         CLEAR     64  54  68 NW9       29.77R
$$

PAZ047>061-062-071-290800-
EASTERN PENNSYLVANIA

CITY           SKY/WX    TMP DP  RH WIND       PRES   REMARKS
PHILADELPHIA   CLEAR     68  55  63 NW8       29.81R
ALLENTOWN      CLEAR     62  53  72 W3        29.80S
SCRANTON       CLOUDY    59  55  87 CALM      29.82R
$$

CTZ002-004>006-009-010-012-RIZ004-006-007-MAZ004-011-015-290800-
SOUTHERN NEW ENGLAND
 IN CT

CITY           SKY/WX    TMP DP  RH WIND       PRES   REMARKS
BRADLEY INTL   CLOUDY    65  56  72 NW9       29.68R
HARTFORD       CLOUDY    66  56  70 NW7       29.69R
DANBURY        PTCLDY    63  55  75 NW5       29.74R
WTRBRY/OXFORD  CLEAR     63  52  67 NW6       29.74R
BRIDGEPORT     CLEAR     66  58  75 W5        29.71R
MERIDEN        MOCLDY    65  56  72 N5G18     29.70R
NEW HAVEN      CLEAR     68  55  63 NW8       29.71R
CHESTER        FAIR      64  57  77 N7        29.72R
GROTON         PTCLDY    65  59  81 W6        29.68R
WILLIMANTIC    CLEAR     63  58  83 VRB3      29.68R

 IN RI

CITY           SKY/WX    TMP DP  RH WIND       PRES   REMARKS
PROVIDENCE     CLEAR     66  60  81 W9        29.66R
BLOCK ISLAND   CLEAR     66  61  82 W9        29.69R
WESTERLY       CLEAR     66  60  81 W6        29.69R

 IN MA

CITY           SKY/WX    TMP DP  RH WIND       PRES   REMARKS
BOSTON         CLEAR     67  59  75 W16       29.62R
WORCESTER      CLEAR     61  56  83 W13       29.67R
WESTFIELD      CLOUDY    65  56  72 NW9       29.69R
PROVINCETOWN   CLEAR     66  63  88 SW13      29.62R
NANTUCKET      CLEAR     68  64  87 SW13      29.66R
$$

ANZ330-335-338-340-345-350-353-355-290800-
COASTAL MARINE OBSERVATIONS


STATION/POSITION TIME  SKY/WX   TEMP    WIND        PRES    VSBY  WAVE
                                AIR SEA DIR/SP/G                  HT/PER
                 (UTC)          (F)     (DEG/KT/KT) (MB)    (MI)  (FT/S)
NY HARB ENTRANCE NOT AVBL
4S FIRE IS       NOT AVBL
23SW MTP         0700            68 69              1005.2          5/ 7
HUDSON CANYON    0700            71 74  310/ 16/ 17 1006.8          6/ 8
EXECUTION ROCKS  0700            67 70  320/ 12/ 16   N/A
WESTERN LI SOUND 0700            67     290/ 12/ 17   N/A           1/ 2
CENTRAL LI SOUND 0600            68 70  300/ 17/ 21   N/A           3/ 4
EASTERN LI SOUND 0600            68 67  300/ 12/ 16   N/A
ROBBINS REEF     0700            67     310/ 14/ 19   N/A
$$


>>>>>>>>>>>>>>>>>>>>>>>>>>>> KEY <<<<<<<<<<<<<<<<<<<<<<<<<<<
>                                                          <
>     SKY/WX - SKY CONDITION/PRESENT WEATHER               <
>     TMP    - TEMPERATURE IN FAHRENHEIT                   <
>     DP     - DEWPOINT IN FAHRENHEIT                      <
>     RH     - RELATIVE HUMIDITY IN PERCENT                <
>     WIND   - DIRECTION AND SPEED IN MPH                  <
>     PRES   - MEAN SEA LEVEL PRESSURE IN INCHES OF HG     <
>     WCI    - WIND CHILL INDEX                            <
>     VSB    - VISIBILITY IN MILES                         <
>     HX     - HEAT INDEX                                  <
>     TC     - TEMPERATURE IN CELSIUS                      <
>     VRB    - VARIABLE WIND DIRECTION                     <
>                                                          <
>>>>>>>>>>>>>>>>>>>>>>>>>>>> KEY <<<<<<<<<<<<<<<<<<<<<<<<<<<





USA.gov is the U.S. government's official web portal to all federal, state and local government web resources and services.